CAPE
2296 2505 2691 3700 684 179 338 338 406 539 520 397 32 654 920 795 565 389 127 218 278 224 852 934 1613 1144 945 1217 1523 1586 1780 1936 1917 1817 1779 1624 1692 1548 1492 1351 1252 1259 1147 1171 937 704 585 747 639
2575 2686 3582 1651 223 343 472 272 308 679 747 508 600 835 924 849 235 178 257 309 272 106 297 495 1709 1127 904 1481 1049 1562 1825 1840 2040 2174 1772 1792 1793 1631 1596 1458 1116 1161 1482 1395 965 1057 900 1035 927
2780 2773 1769 396 205 495 575 627 703 570 467 479 645 693 651 799 135 56 260 251 179 471 374 827 1322 1038 1346 1459 1825 1901 1859 1925 2057 2055 2005 1940 1751 1588 1611 1609 1422 1345 1307 1314 1096 1191 1238 1125 1139
1975 2371 1187 202 398 678 579 699 529 336 173 5 6 321 570 315 161 168 320 183 450 427 435 1097 1463 1521 1578 1569 1352 1381 1853 1980 1857 1973 1842 2120 2141 1841 1650 1511 1453 1527 1419 1191 1231 1099 1293 1159 1052
1311 1040 166 289 626 692 679 660 478 300 241 62 0 36 246 557 470 244 296 225 383 426 637 1206 1771 1698 1636 1517 1670 1593 1461 1890 1870 1841 1903 1870 2090 2059 1759 1682 1594 1747 1374 1278 1400 1321 1269 1158 905
519 563 82 128 501 843 790 582 475 383 271 1 0 57 529 630 310 229 116 196 211 245 277 893 1918 1670 1258 1978 1819 1571 1641 1558 1909 1783 1903 1795 1934 2022 1961 1833 1640 1584 1528 1426 1438 1380 1165 759 592
359 148 305 199 527 798 755 545 502 360 132 6 0 0 423 392 172 83 66 107 18 147 466 558 380 690 1151 1491 1662 1714 1460 1474 1495 1917 1545 1820 1490 1460 1816 1914 1406 1397 1424 1590 1251 1223 1048 912 706
326 483 187 270 276 773 747 577 421 447 154 129 17 0 38 335 162 113 124 45 286 463 456 305 299 436 409 302 695 925 1463 1372 1441 1528 1555 1795 1873 1841 1621 1498 1793 1641 1197 1609 1268 1164 1080 953 711
126 520 212 197 201 847 740 607 508 474 196 366 415 0 0 243 166 91 61 34 465 463 527 111 297 709 1329 1122 840 627 456 1017 1401 1436 1406 1488 1066 1251 1331 1584 1448 1292 1471 1575 1558 1357 1282 1287 781
303 405 306 277 418 614 768 648 605 406 391 573 333 24 56 153 141 81 18 0 49 67 221 170 288 552 648 379 1401 1563 725 118 459 902 1176 1068 937 1153 1088 1247 1357 1283 1215 1208 1382 1261 1136 737 271
237 575 444 421 537 668 715 727 553 261 180 357 20 29 46 158 195 110 0 0 0 0 0 87 545 830 575 1345 607 837 782 923 359 854 1333 825 816 670 728 766 811 1223 1566 1208 1295 1354 690 293 208
614 799 688 779 792 729 713 722 467 351 271 95 2 35 120 171 194 145 44 0 0 0 0 0 183 579 881 851 811 1013 1503 829 627 416 799 1413 1471 1051 954 870 839 872 671 677 576 512 525 554 580
687 784 627 811 782 775 818 681 481 310 231 92 44 147 166 184 220 191 96 14 0 0 0 0 90 590 980 1319 1151 1187 1601 1908 1079 842 514 959 1099 1420 1138 1129 1371 1380 580 437 443 530 829 798 687
781 744 700 876 905 891 772 694 549 428 371 239 141 250 204 175 169 274 269 217 58 0 0 17 147 425 744 1183 1492 1506 1107 1454 1359 1572 973 1015 1929 1299 1395 1524 1407 2414 1094 846 1154 753 736 970 1038
720 716 854 945 973 955 846 752 649 512 452 465 325 371 338 276 119 322 566 723 591 288 1 0 124 260 687 840 1185 1258 1101 2208 1437 888 1438 1297 1310 1343 1551 1636 1463 1580 1770 1891 1850 1561 1631 1606 1443
595 608 720 992 955 979 860 633 834 616 586 610 494 462 607 747 779 624 622 774 838 826 419 278 99 116 622 740 1306 1334 1256 1486 1335 1052 1006 1236 1343 1287 1385 981 871 907 1269 1587 1595 1259 1427 1853 1267
498 490 417 542 872 828 833 678 680 702 689 740 704 669 605 791 931 929 806 866 917 1026 1153 1042 1005 207 657 1157 1318 1460 1750 1410 1154 1018 988 1320 1104 985 1131 667 585 969 900 1636 1218 2754 1746 1935 1862
424 363 283 251 474 647 724 815 664 770 733 797 832 855 810 702 884 888 822 833 904 1035 1124 1171 588 1249 1491 1431 1666 1478 1445 1729 1566 1313 1540 1469 1104 925 1263 935 1240 1364 1279 1199 1250 1775 1448 1693 2812
169 236 280 289 326 517 632 604 563 579 787 793 854 874 977 791 830 711 759 759 993 1011 1027 1160 1070 470 1534 1661 1647 1499 971 1169 1507 1456 419 802 1718 2053 1789 1464 1619 2022 2334 1907 1639 1550 1591 1595 1722
242 294 356 339 441 570 432 460 414 587 759 840 877 853 925 970 825 849 822 698 763 900 845 1342 1269 1445 1880 1695 1786 1603 1014 951 1321 1755 1999 2211 2020 2069 2298 2296 1961 1868 1820 2226 2080 1679 1391 1929 1593
263 335 283 312 345 583 292 330 529 708 700 864 826 850 832 989 1073 909 838 822 800 911 984 1109 1418 1942 2167 1700 1943 2318 1818 1787 1328 1414 1831 2179 2536 2484 2478 2453 2526 2201 1997 2396 2013 2048 2264 1751 2195
311 211 241 245 264 327 292 237 346 414 679 792 983 950 875 863 955 1184 948 826 840 859 856 1101 1640 1772 2016 2264 1781 2025 1578 1686 2428 2294 1489 1843 1885 986 851 1093 1948 2189 2814 2751 2673 1987 2315 1732 2170
256 138 153 215 274 257 254 127 379 595 476 515 832 793 962 843 845 1072 1076 871 861 732 1105 1252 1728 1941 1660 1604 1627 2016 2220 2851 1801 2071 1776 1615 1625 1635 1569 1619 2300 2388 2026 1931 2194 2004 1687 1109 1084
69 169 270 252 236 289 228 177 205 221 425 501 811 880 797 957 913 885 1086 851 817 830 593 633 1409 1761 1634 1625 1638 1905 2226 2030 1975 2268 1881 2008 1627 1478 1120 1192 1114 1105 1152 1234 1492 1654 1783 1911 1783
98 157 266 362 385 213 263 225 163 264 686 669 797 981 909 898 1100 899 1057 945 859 616 550 620 1137 1668 1670 1771 2288 2199 2469 2027 2126 2444 2373 1611 1276 1185 700 551 344 134 119 222 366 594 1352 1249 1450
128 172 233 240 276 283 219 247 220 170 547 503 739 1652 1530 1310 1148 1099 1078 1051 956 736 777 1152 2154 2585 2631 2674 2824 2682 2842 3241 2747 2580 1998 1554 1072 395 551 626 536 258 27 24 14 43 66 115 353
26 141 137 97 101 164 280 211 45 633 830 485 506 1054 1420 1325 1344 1271 1203 1056 951 970 986 1572 2436 2717 2737 2789 3156 2906 3017 2665 2395 1719 983 495 228 51 0 0 0 0 1 10 0 0 0 0 0
0 37 65 90 41 205 144 29 90 18 178 645 691 724 1355 1429 1431 1443 1203 1013 1099 1125 1376 1882 2897 2900 2591 2582 2807 2805 2587 1874 1219 747 267 11 0 0 1 4 6 5 2 3 5 0 0 1 0
0 0 0 15 10 7 4 31 0 8 54 700 739 945 1378 1539 1559 1539 1370 1218 1236 1264 1634 2245 2280 2258 2371 2621 2628 2453 1757 1014 436 80 3 0 0 0 2 4 12 17 8 4 4 1 1 2 4
0 0 6 67 117 9 0 28 0 41 280 651 819 1267 1311 1635 1710 1656 1558 1526 1538 1703 1924 1990 944 1195 1912 2322 2099 1554 843 265 5 0 0 0 0 1 7 14 17 12 5 4 2 0 0 3 7
CIN
-256 -189 -150 -53 -4 -17 -5 -4 -1 -0 -0 -3 -61 -0 -0 -3 -5 -2 -15 -14 -5 -4 -0 -0 -0 -0 -1 -0 -0 -0 -0 -0 -0 -0 -0 -0 -0 -0 -0 -0 -0 -1 -0 -0 -0 -0 -0 -0 -0
-149 -172 -73 -4 -19 -7 -0 -18 -10 -0 -3 -8 -10 -1 -0 -2 -53 -50 -27 -12 -4 -33 -0 -0 -0 -0 -4 -0 -0 -0 -0 -0 -0 -0 -0 -0 -0 -0 -0 -0 -3 -0 -0 -0 -0 -0 -0 -0 -0
-174 -147 -1 -16 -32 -0 -0 -0 -0 -2 -4 -0 -3 -9 -6 -4 -46 -41 -28 -22 -7 -0 -0 -0 -0 -2 -2 -0 -0 -0 -0 -0 -0 -0 -0 -0 -0 -0 -0 -0 -1 -0 -0 -0 -0 -0 -0 -0 -0
-117 -18 -4 -24 -0 -0 -0 -0 -0 -8 -40 -0 -6 -31 -43 -42 -40 -36 -33 -23 -0 -0 -0 -9 -0 -0 -0 -0 -0 -0 -0 -0 -0 -0 -0 -0 -0 -0 -0 -0 -0 -0 -0 -0 -0 -0 -0 -0 -0
-87 -8 -25 -2 -0 -0 -0 -0 -4 -7 -23 -63 -0 -76 -76 -17 -26 -40 -28 -5 -0 -0 -0 -0 -0 -0 -0 -0 -0 -0 -0 -0 -0 -0 -0 -0 -0 -0 -0 -0 -0 -0 -0 -0 -0 -0 -0 -0 -16
-3 -6 -21 -13 -0 -0 -0 -5 -2 -16 -36 -12 -0 -61 -23 -13 -36 -34 -36 -1 -3 -4 -0 -0 -0 -0 -0 -0 -0 -0 -0 -0 -0 -0 -0 -0 -0 -0 -0 -0 -0 -0 -0 -0 -0 -0 -0 -4 -16
-1 -1 -0 -0 -0 -0 -5 -11 -4 -15 -39 -12 -0 -0 -44 -25 -54 -61 -50 -27 -50 -15 -0 -0 -0 -7 -0 -0 -0 -0 -0 -0 -0 -0 -2 -0 -1 -1 -0 -0 -0 -0 -0 -0 -0 -0 -1 -1 -6
-8 -1 -0 -0 -0 -1 -11 -18 -37 -11 -43 -68 -84 -0 -34 -40 -66 -53 -43 -67 -4 -0 -0 -0 -1 -0 -0 -4 -19 -7 -0 -0 -0 -0 -3 -0 -1 -3 -4 -7 -0 -0 -0 -0 -1 -3 -17 -14 -29
-41 -0 -0 -0 -0 -5 -22 -18 -39 -49 -69 -40 -43 -0 -0 -54 -68 -61 -60 -64 -7 -4 -2 -0 -0 -0 -3 -0 -2 -20 -25 -2 -1 -1 -4 -18 -0 -0 -0 -10 -2 -0 -0 -0 -0 -0 -2 -6 -26
-6 -0 -0 -4 -2 -3 -13 -16 -25 -38 -36 -30 -37 -63 -98 -66 -50 -43 -73 -0 -44 -25 -21 -2 -0 -0 -0 -9 -8 -0 -0 -2 -0 -0 -0 -0 -0 -0 -0 -3 -4 -2 -1 -0 -0 -0 -5 -33 -0
-19 -0 -4 -10 -6 -11 -17 -17 -28 -13 -4 -18 -51 -87 -97 -64 -47 -41 -0 -0 -0 -0 -0 -18 -7 -0 -0 -5 -1 -0 -0 -0 -0 -0 -0 -0 -0 -0 -0 -0 -0 -0 -3 -0 -2 -3 -0 -0 -0
-1 -8 -7 -23 -22 -16 -17 -25 -19 -16 -24 -59 -87 -88 -53 -37 -25 -28 -53 -0 -0 -0 -0 -0 -18 -3 -0 -0 -0 -0 -0 -0 -0 -0 -0 -0 -0 -0 -0 -0 -0 -0 -0 -0 -0 -0 -0 -0 -0
-0 -13 -23 -28 -31 -21 -30 -29 -25 -34 -42 -79 -81 -57 -29 -14 -9 -9 -21 -50 -0 -0 -0 -0 -28 -26 -8 -2 -0 -0 -0 -0 -0 -0 -0 -0 -0 -0 -0 -0 -0 -0 -0 -0 -0 -0 -0 -0 -0
-8 -17 -32 -27 -32 -32 -30 -40 -39 -50 -54 -64 -74 -38 -21 -5 -19 -7 -7 -9 -17 -0 -0 -9 -32 -31 -17 -6 -1 -0 -0 -3 -5 -4 -0 -3 -0 -0 -0 -0 -0 -0 -0 -0 -0 -0 -0 -0 -0
-16 -6 -29 -26 -43 -35 -41 -48 -28 -52 -65 -53 -59 -41 -15 -9 -92 -13 -1 -0 -5 -10 -4 -0 -32 -31 -27 -18 -6 -0 -0 -4 -2 -0 -0 -0 -0 -0 -0 -0 -0 -0 -0 -0 -0 -0 -0 -0 -0
-2 -2 -0 -27 -43 -66 -53 -0 -28 -76 -75 -56 -52 -37 -28 -14 -17 -31 -13 -0 -0 -8 -95 -29 -21 -20 -16 -7 -3 -0 -0 -0 -0 -0 -0 -0 -0 -0 -0 -0 -0 -0 -0 -0 -0 -0 -0 -0 -0
-1 -0 -0 -5 -35 -40 -51 -7 -45 -89 -68 -59 -50 -48 -39 -29 -16 -16 -16 -16 -6 -7 -12 -31 -12 -77 -9 -8 -1 -0 -22 -23 -57 -1 -0 -0 -0 -3 -3 -0 -0 -7 -0 -0 -2 -0 -5 -2 -0
-0 -0 -0 -1 -13 -39 -19 -26 -32 -98 -80 -60 -47 -51 -44 -32 -30 -22 -16 -26 -28 -14 -15 -6 -102 -16 -17 -10 -8 -0 -0 -6 -5 -0 -0 -17 -3 -16 -5 -0 -0 -1 -0 -1 -0 -0 -0 -0 -0
-10 -3 -0 -6 -28 -28 -12 -8 -19 -59 -103 -71 -52 -50 -46 -30 -40 -36 -27 -25 -32 -22 -15 -13 -28 -183 -12 -8 -0 -0 -0 -0 -9 -9 -123 -49 -0 -0 -2 -0 -0 -0 -0 -1 -0 -0 -0 -0 -0
-2 -0 -0 -6 -32 -28 -7 -7 -10 -33 -51 -69 -65 -53 -56 -48 -41 -48 -37 -35 -31 -22 -15 -8 -9 -6 -1 -2 -0 -0 -0 -0 -0 -0 -0 -8 -11 -1 -0 -0 -0 -0 -0 -0 -0 -0 -8 -0 -0
-0 -0 -2 -4 -10 -32 -21 -2 -11 -43 -80 -81 -70 -60 -42 -46 -64 -50 -38 -25 -36 -31 -20 -11 -19 -0 -0 -6 -0 -1 -0 -1 -5 -2 -0 -3 -0 -0 -0 -0 -0 -0 -0 -0 -4 -4 -0 -0 -2
-0 -20 -9 -6 -1 -0 -18 -0 -0 -15 -54 -95 -80 -59 -52 -40 -56 -57 -37 -17 -19 -25 -26 -33 -18 -9 -9 -8 -0 -0 -0 -1 -1 -0 -63 -1 -7 -41 -22 -11 -0 -0 -0 -0 -0 -0 -4 -8 -0
-0 -27 -28 -7 -0 -0 -6 -0 -1 -16 -7 -36 -81 -69 -52 -57 -41 -37 -45 -26 -12 -33 -18 -16 -11 -5 -5 -10 -10 -0 -1 -0 -0 -0 -10 -20 -12 -3 -0 -1 -0 -0 -0 -0 -0 -0 -8 -20 -11
-36 -10 -4 -5 -0 -0 -10 -7 -0 -1 -17 -34 -58 -67 -69 -67 -50 -55 -58 -63 -37 -53 -59 -45 -21 -21 -20 -21 -22 -17 -0 -0 -0 -0 -0 -6 -5 -1 -14 -6 -5 -9 -12 -13 -7 -7 -0 -0 -0
-12 -0 -0 -0 -1 -0 -6 -1 -0 -5 -33 -49 -54 -72 -67 -81 -60 -78 -80 -83 -69 -89 -82 -85 -66 -24 -32 -27 -3 -9 -0 -0 -0 -0 -0 -7 -4 -0 -17 -24 -49 -80 -99 -102 -91 -82 -6 -26 -15
-1 -0 -0 -0 -0 -0 -18 -0 -0 -9 -59 -77 -73 -54 -71 -58 -72 -74 -72 -77 -84 -103 -89 -65 -26 -15 -8 -0 -0 -3 -1 -0 -0 -0 -0 -0 -0 -6 -0 -0 -7 -21 -63 -77 -94 -63 -147 -120 -59
-25 -15 -4 -2 -0 -0 -0 -12 -8 -13 -32 -58 -81 -77 -64 -54 -61 -71 -78 -94 -113 -108 -101 -56 -6 -0 -0 -4 -0 -0 -0 -0 -0 -0 -1 -13 -25 -74 -0 -0 -0 -0 -15 -185 -0 -0 -0 -0 -0
-0 -9 -30 -10 -16 -0 -0 -23 -4 -10 -2 -42 -48 -62 -57 -65 -66 -62 -77 -87 -99 -84 -73 -37 -4 -3 -6 -2 -0 -0 -1 -17 -44 -64 -133 -95 -0 -0 -0 -0 -0 -0 -0 -0 -319 -0 -0 -0 -0
-0 -0 -0 -3 -6 -23 -4 -0 -0 -19 -6 -13 -34 -46 -54 -63 -70 -71 -81 -76 -79 -76 -60 -37 -52 -41 -18 -3 -1 -3 -32 -89 -146 -215 -87 -0 -0 -0 -0 -0 -0 -0 -0 -0 -0 -0 -0 -0 -0
-0 -0 -0 -2 -0 -0 -0 -30 -0 -7 -6 -22 -20 -47 -68 -75 -75 -71 -70 -61 -59 -52 -37 -51 -131 -104 -18 -14 -30 -61 -127 -198 -13 -0 -0 -0 -0 -0 -0 -0 -0 -0 -0 -0 -0 -0 -0 -0 -0
Wind_Speed
24 23 21 24 22 9 5 5 9 6 7 5 nan 8 7 12 11 4 7 8 10 9 10 11 8 5 1 2 4 4 6 5 3 2 4 4 5 7 7 4 0 4 6 3 3 6 5 3 3
18 15 20 19 13 1 2 2 3 3 5 5 2 4 5 5 6 8 6 11 13 9 10 10 7 7 2 3 1 2 4 5 5 4 4 6 7 5 6 4 1 1 2 5 2 2 1 1 2
22 21 18 17 7 5 2 4 9 6 8 7 3 6 6 7 5 nan 9 12 12 9 8 6 8 9 8 1 0 3 4 3 5 6 5 5 6 7 5 3 1 2 3 4 4 2 2 3 4
21 21 23 11 2 3 7 8 8 7 7 nan nan 3 3 3 0 4 10 9 10 8 6 9 10 9 6 2 3 2 5 5 4 7 6 6 7 4 4 2 1 2 4 4 2 2 2 4 4
22 20 13 8 6 10 11 10 8 7 6 nan nan nan 6 4 1 10 9 7 5 6 4 9 9 7 4 4 1 1 2 5 5 5 4 6 6 6 4 4 5 3 1 1 0 1 2 2 2
20 21 nan 10 11 14 14 12 10 8 9 nan nan nan 6 3 6 8 6 6 5 4 2 6 5 5 5 4 3 3 3 3 5 5 4 4 5 7 7 5 4 3 1 3 3 1 2 3 3
16 18 12 11 12 16 16 14 13 15 16 nan nan nan 2 5 5 nan nan 3 nan 3 1 3 7 7 7 6 6 5 5 6 5 6 6 5 5 7 9 6 6 5 0 5 3 2 2 2 2
19 26 15 11 12 15 18 15 21 21 14 15 nan nan nan 6 6 6 5 nan 3 2 1 2 6 4 9 8 9 9 9 7 7 8 8 7 5 7 7 6 4 2 4 2 4 4 4 6 5
12 18 8 6 10 16 23 19 23 24 27 17 8 nan nan 12 7 nan nan nan 2 3 5 7 7 3 4 8 9 12 13 12 11 11 10 17 12 10 11 10 6 4 4 5 6 7 6 8 6
16 8 6 9 9 17 24 23 24 30 27 22 15 nan nan 14 8 nan nan nan nan nan 3 4 5 5 6 9 10 17 12 13 17 15 15 17 13 13 14 5 7 8 9 11 10 10 11 15 10
11 11 13 8 10 18 23 24 22 29 28 28 nan nan nan 15 9 4 nan nan nan nan nan nan 4 5 6 2 9 12 14 15 14 17 19 13 15 14 14 10 11 10 10 14 13 10 14 11 12
12 12 11 13 15 20 22 22 26 23 16 nan nan nan 18 13 9 6 nan nan nan nan nan nan 2 4 8 8 8 10 8 13 14 13 15 12 15 13 13 11 12 10 9 8 9 10 11 10 10
8 8 8 11 17 21 18 22 25 25 24 nan nan 33 28 17 8 3 nan nan nan nan nan nan nan 3 8 12 12 13 7 6 10 11 9 9 8 10 10 7 8 12 6 6 7 7 8 8 10
0 0 3 11 15 19 19 19 28 27 31 35 40 37 35 27 4 3 1 1 nan nan nan nan 2 2 5 9 13 12 12 10 8 7 4 6 10 5 7 7 6 4 9 6 5 6 5 5 6
7 6 7 8 13 14 16 22 27 29 34 39 40 38 36 31 16 13 7 5 4 3 nan nan 3 2 3 6 8 10 10 12 9 8 1 6 5 5 9 2 3 3 2 5 7 7 4 5 5
4 8 9 3 12 9 17 10 23 29 33 37 41 36 33 31 25 18 9 3 5 5 6 6 nan 3 3 2 5 8 7 8 9 10 6 4 3 5 4 2 2 3 0 5 6 6 6 5 4
6 4 3 2 14 10 19 9 13 27 30 32 35 35 31 27 26 20 15 6 2 5 4 2 5 6 3 4 3 6 8 5 8 7 8 10 6 4 7 5 4 4 4 8 5 1 0 5 2
9 5 2 11 4 15 15 17 13 24 28 29 31 33 33 30 25 22 19 12 7 4 7 6 9 7 4 4 1 3 3 1 3 8 10 8 8 5 6 7 4 5 6 8 10 4 5 7 10
5 8 9 6 1 9 12 17 14 18 24 27 30 31 34 32 28 22 15 13 16 3 5 6 7 11 3 3 1 1 2 2 4 7 4 1 1 4 5 9 5 6 5 9 9 7 5 9 8
5 5 9 2 1 7 4 16 10 11 20 26 28 30 30 32 29 26 19 12 14 9 1 4 4 2 3 3 4 5 2 2 6 6 4 5 2 4 5 5 7 8 7 5 1 2 5 4 4
11 12 10 5 5 10 9 19 8 9 12 17 25 27 31 33 33 28 21 14 10 12 8 2 3 5 3 6 5 5 5 3 1 0 2 2 1 1 3 5 7 5 6 7 9 9 6 7 15
4 14 2 2 6 9 4 8 17 13 10 16 23 25 27 32 31 27 25 17 15 13 10 9 6 2 5 5 5 7 5 5 9 6 6 6 10 10 11 13 11 12 13 12 13 16 14 16 15
27 12 3 8 8 2 23 5 16 16 14 9 24 28 27 22 26 27 23 21 16 18 14 8 5 1 4 4 5 6 4 11 6 11 12 13 15 14 16 17 18 19 20 20 19 21 19 25 24
nan 8 6 8 4 6 24 2 3 10 4 8 19 29 28 24 19 22 22 19 18 18 18 16 12 6 4 2 5 4 5 8 8 10 11 15 15 20 21 23 23 23 21 23 21 19 23 27 24
nan 5 5 6 8 6 20 1 8 12 9 8 18 28 34 21 17 23 23 21 19 19 16 13 14 11 8 7 6 6 6 8 8 6 11 11 10 11 13 16 18 21 21 16 15 17 6 11 18
11 12 10 7 2 11 24 2 9 11 7 13 18 24 29 24 23 24 21 21 18 17 16 7 13 11 5 6 7 8 5 2 8 10 10 7 7 11 13 13 13 11 nan nan nan nan nan 0 3
nan 8 7 nan 13 9 4 11 nan 17 13 16 19 24 29 27 25 25 23 21 19 16 15 18 18 6 5 4 1 3 8 8 12 13 12 12 10 nan nan nan nan nan nan nan nan nan nan nan nan
nan nan nan nan nan 3 8 nan nan nan 13 17 21 23 27 25 27 31 29 25 18 17 14 14 12 11 6 7 5 9 13 12 12 12 14 nan nan nan nan nan nan nan nan nan nan nan nan nan nan
nan nan nan nan nan nan nan nan nan nan nan 21 22 25 30 26 30 32 32 29 26 20 14 12 10 11 9 7 10 12 14 15 13 nan nan nan nan nan nan nan nan nan nan nan nan nan nan nan nan
nan nan nan nan 7 nan nan nan nan nan 18 18 27 26 28 27 29 35 27 25 26 22 16 14 10 12 9 13 13 14 17 17 nan nan nan nan nan nan nan nan nan nan nan nan nan nan nan nan nan
Wind_Direction
28 42 67 69 67 78 145 106 73 32 30 79 nan 132 199 173 144 185 332 38 4 358 339 3 27 16 317 104 88 137 129 151 138 157 158 169 181 204 197 198 265 335 360 15 28 31 87 122 175
35 47 59 76 84 67 74 97 51 64 31 352 29 74 159 198 210 301 355 14 17 0 13 0 25 15 4 76 151 141 157 142 150 159 154 164 171 201 217 204 147 49 9 52 55 177 294 281 232
55 57 66 72 125 147 11 344 349 14 30 54 53 172 135 172 323 nan 317 7 15 19 27 325 24 27 40 25 227 174 197 166 175 167 173 149 164 179 195 187 115 70 78 83 100 104 219 243 265
63 43 52 79 35 38 349 355 352 354 6 nan nan 235 237 255 253 334 336 6 16 6 22 9 33 31 31 16 39 176 189 187 192 171 189 190 177 170 166 172 207 148 110 74 81 238 286 246 269
51 48 45 31 352 9 0 7 12 3 24 nan nan nan 272 184 179 322 341 12 357 10 327 13 36 34 34 56 85 119 187 182 174 175 160 191 200 181 181 180 181 177 215 354 90 2 211 180 169
43 57 nan 36 7 17 7 12 15 1 3 nan nan nan 237 252 353 328 344 358 357 342 330 2 24 52 64 82 99 104 103 127 155 155 142 156 187 182 177 179 155 168 268 333 21 69 208 181 196
77 78 82 62 14 10 8 15 4 352 353 nan nan nan 231 334 332 nan nan 332 nan 349 349 9 22 40 59 92 103 111 97 100 107 129 119 124 140 156 164 162 156 164 150 352 30 67 148 114 111
90 84 57 50 19 2 10 24 20 26 5 1 nan nan nan 330 354 329 319 nan 357 314 344 59 53 44 53 48 96 104 115 97 94 103 112 108 93 120 134 126 161 114 19 56 89 104 115 124 105
92 57 32 27 34 7 10 22 32 30 14 26 31 nan nan 321 352 nan nan nan 23 50 82 58 13 37 143 85 116 86 95 104 91 73 96 82 94 87 74 183 152 132 103 102 109 121 131 125 110
81 107 80 88 41 17 18 26 22 17 15 11 344 nan nan 328 8 nan nan nan nan nan 39 55 48 6 26 60 116 113 111 96 103 107 92 98 100 111 129 114 100 104 104 97 100 104 103 85 89
76 112 72 58 60 27 16 14 21 11 16 2 nan nan nan 343 2 30 nan nan nan nan nan nan 44 55 49 165 115 109 112 114 106 98 96 98 99 97 97 106 80 75 60 67 48 58 76 100 124
71 88 77 55 39 22 23 16 13 27 18 nan nan nan 347 351 355 352 nan nan nan nan nan nan 51 61 94 97 114 102 115 109 104 96 93 104 107 98 108 106 106 100 94 107 102 113 119 118 100
109 87 67 43 42 39 27 26 26 21 8 nan nan 6 3 354 322 315 nan nan nan nan nan nan nan 101 102 92 119 130 126 109 110 104 78 103 101 107 111 108 119 122 119 97 95 95 86 76 74
346 346 19 47 50 41 40 29 27 19 6 4 6 10 9 2 19 348 59 202 nan nan nan nan 165 147 90 113 116 139 142 153 151 119 97 104 120 121 103 124 117 120 139 130 138 100 84 72 88
319 1 7 43 53 48 37 28 33 13 12 7 9 10 17 28 38 71 43 10 338 277 nan nan 189 234 152 123 127 121 149 214 169 166 199 110 115 172 145 131 147 138 122 138 150 139 130 130 111
359 20 36 5 59 49 50 46 9 12 17 11 10 18 18 23 36 35 62 56 255 251 223 170 nan 246 271 161 158 141 143 188 188 209 199 245 242 183 167 184 256 339 8 216 173 172 182 153 134
357 157 173 88 66 60 46 74 357 11 16 18 14 13 15 12 19 28 16 356 336 290 258 206 196 226 230 239 174 146 221 179 213 189 198 235 242 224 173 206 255 323 168 188 165 220 116 194 174
216 131 210 137 67 60 55 59 33 15 14 21 17 14 20 13 11 2 12 11 339 281 235 195 194 199 210 228 253 139 145 277 100 186 213 193 207 245 233 192 169 97 137 164 151 162 106 179 166
226 142 163 243 228 54 60 82 67 19 18 26 26 20 17 20 6 359 358 4 0 9 226 239 238 199 195 208 199 258 78 139 120 134 170 303 233 258 182 168 159 129 154 165 174 168 148 138 161
185 18 225 313 92 46 83 84 58 19 14 21 22 19 17 13 11 2 352 354 18 32 141 219 306 259 133 224 193 183 207 21 121 130 109 41 198 198 183 187 179 184 174 207 228 232 184 185 184
286 199 240 193 67 351 98 29 355 325 355 13 10 16 22 18 13 17 16 7 11 28 44 6 10 151 156 225 208 212 222 219 150 161 131 260 100 211 245 236 248 239 239 261 257 254 242 212 223
237 240 247 209 92 235 289 155 304 317 311 359 14 17 22 16 16 20 26 18 13 18 50 54 51 189 214 227 225 252 201 218 229 233 240 245 265 260 266 262 256 258 246 253 261 285 251 248 243
240 239 201 106 95 125 294 94 280 327 292 314 4 17 10 9 12 13 21 24 13 10 20 18 17 2 179 240 211 254 261 252 242 258 273 269 279 262 262 264 265 268 267 268 267 274 266 263 244
nan 254 334 9 41 59 272 311 342 242 213 298 344 3 3 354 352 8 14 15 11 11 26 18 5 342 313 317 279 271 268 269 278 290 279 264 278 286 276 276 275 268 267 265 266 280 285 275 275
nan 65 68 330 333 275 278 343 235 247 258 327 338 359 2 354 355 357 6 14 20 19 27 31 16 357 330 316 293 314 306 279 274 279 267 296 298 299 297 300 294 294 275 271 279 277 281 263 222
275 172 180 234 212 221 281 270 222 239 296 328 333 345 352 4 358 359 6 13 20 20 14 344 353 330 319 289 289 272 270 287 275 272 295 290 279 287 305 307 318 355 nan nan nan nan nan 261 172
nan 312 201 nan 332 359 338 261 nan 256 282 332 340 355 356 356 354 0 8 8 8 9 14 13 356 314 285 233 197 283 277 279 269 286 301 294 305 nan nan nan nan nan nan nan nan nan nan nan nan
nan nan nan nan nan 320 281 nan nan nan 266 317 334 356 0 3 8 5 9 8 5 353 359 15 33 40 8 340 318 304 284 281 286 292 282 nan nan nan nan nan nan nan nan nan nan nan nan nan nan
nan nan nan nan nan nan nan nan nan nan nan 296 323 330 342 341 344 354 2 3 1 347 344 351 353 341 342 314 288 292 291 290 297 nan nan nan nan nan nan nan nan nan nan nan nan nan nan nan nan
nan nan nan nan 317 nan nan nan nan nan 247 280 300 313 326 341 349 354 357 359 357 350 342 332 315 334 323 291 291 292 290 293 nan nan nan nan nan nan nan nan nan nan nan nan nan nan nan nan nan